Regional Weather Roundup
Issued by NWS Portland, ME

Home | Current Version | Previous Version | Text Only | Print | Product List | Glossary On
Versions: 1 2 3 4 5 6 7 8 9 10 11 12 13 14 15 16 17 18 19 20 21 22 23 24 25 26 27 28 29 30 31 32 33 34 35 36 37 38 39 40 41 42 43 44 45 46 47 48 49 50
218
ASUS41 KGYX 211110
RWRGYX
WEATHER ROUNDUP FOR MAINE AND NEW HAMPSHIRE
NATIONAL WEATHER SERVICE GRAY ME
600 AM EST SAT JAN 21 2017

MEZ002-005-006-010-012-015-018-020-021-024-026-027-029-211200-
MAINE

CITY           SKY/WX    TMP DP  RH WIND       PRES   REMARKS
PORTLAND       CLOUDY    36  30  79 SW5       29.83F
SANFORD        CLOUDY    34  31  88 CALM      29.83F
BAR HARBOR     CLOUDY    33  30  88 S6        29.84F
WISCASSET      CLOUDY    33  30  88 CALM      29.85F
ROCKLAND       CLOUDY    34  31  88 CALM      29.85S
FRYEBURG       CLOUDY    32  28  85 CALM      29.82S
LEWISTONAUBURN CLOUDY    34  29  82 CALM      29.82F
AUGUSTA        CLOUDY    32  27  81 S3        29.83F
WATERVILLE     CLOUDY    33  29  85 CALM      29.80F
BANGOR         CLOUDY    33  29  85 S3        29.83F
GREENVILLE       N/A     26  24  92 N6        29.74F
MILLINOCKET    CLOUDY    31  26  82 CALM      29.81F
HOULTON        CLOUDY    28  25  88 SW3       29.79S
PRESQUE ISLE   CLOUDY    27  24  89 S5        29.79F
FRENCHVILLE    CLOUDY    26  22  84 S3        29.74F
CARIBOU        CLOUDY    27  23  85 S6        29.76F
$$

NHZ002-005-008-009-011-012-014-211200-
NEW HAMPSHIRE

CITY           SKY/WX    TMP DP  RH WIND       PRES   REMARKS
PORTSMOUTH     CLOUDY    36  33  90 CALM      29.83S FOG
ROCHESTER      CLOUDY    34  30  85 CALM      29.82F
NASHUA         CLOUDY    36  35  96 S3        29.83F FOG
MANCHESTER     CLOUDY    36  32  85 SE6       29.80F
CONCORD        CLOUDY    34  30  85 CALM      29.82F
LACONIA        CLOUDY    33  30  88 W3        29.82S
PLYMOUTH       CLOUDY    32  31  96 CALM      29.82S
BERLIN         CLOUDY    27  24  89 CALM      29.79F
WHITEFIELD     CLOUDY    29  26  89 CALM      29.80S
JAFFREY        FOG       34  33  96 SW5       29.79F VSB 3/4
KEENE          CLOUDY    33  31  92 CALM      29.83S
LEBANON        CLOUDY    36  33  89 CALM      29.80F
MT WASHINGTON  MOCLDY    27  21  80 NW40G46     N/A  WCI   8
$$

VTZ005-007-008-211200-
VERMONT

CITY           SKY/WX    TMP DP  RH WIND       PRES   REMARKS
ST JOHNSBURY     N/A     33  30  88 MISG      29.80F
MONTPELIER     CLOUDY    31  30  96 CALM      29.83S FOG
BURLINGTON     CLOUDY    37  35  92 S6        29.81S FOG
$$

MAZ007-012-024-CTZ003-RIZ002-NYZ038-NYZ072-211200-
SOUTHERN NEW ENGLAND AND NY

CITY           SKY/WX    TMP DP  RH WIND       PRES   REMARKS
BOSTON         CLOUDY    38  38 100 S5        29.86F
WORCESTER      FOG       34  33  96 SW8       29.81F VSB 1/4
NANTUCKET      CLOUDY    43  38  82 S5        29.88F
PROVIDENCE     CLOUDY    40  38  93 S3        29.86F
HARTFORD       CLOUDY    38  37  97 S8        29.86S FOG
ALBANY         DRIZZLE   38  35  89 S7        29.85R FOG
NEW YORK CITY  CLOUDY    45  41  86 SW6       29.88F
$$

ANZ081-ANZ082-ANZ150-NHZ014-MEZ023>029-211200-
COASTAL MARINE OBSERVATIONS

STATION/POSITION TIME  TEMP    WIND        PRES    WAVE
                       AIR SEA DIR/SP/G            HT/PER
                 (UTC) (F)     (DEG/KT/KT) (MB)    (FT/S)
MOUNT DESERT ROC 1100   40                 1010.9F
MATINICUS ROCK   1000   41     230/ 14/ 17 1010.2F
ISLE OF SHOALS   1000   38     220/ 13/ 15 1010.6F
CASHES LEDGE BUO 1050   42 46  230/ 12/ 16 1010.8F   5/11
GEORGES BANK BUO 1050   41 42              1013.0S   7/12
$$

.............KEY..............
   WCI - WIND CHILL
   TC  - TEMPERATURE IN CELSIUS
   VSB - VISIBILITY IN MILES
   HX  - HEAT INDEX
   FAIR- INDICATES FEW OR NO CLOUDS BELOW 12,000 FT, WITH NO
         SIGNIFICANT WEATHER AND/OR OBSTRUCTIONS TO VISIBILITY.






USA.gov is the U.S. government's official web portal to all federal, state and local government web resources and services.